TimeMST,TemperatureF,Dew PointF,Humidity,Sea Level PressureIn,VisibilityMPH,Wind Direction,Wind SpeedMPH,Gust SpeedMPH,PrecipitationIn,Events,Conditions,WindDirDegrees,DateUTC
12:53 AM,39.0,24.1,55,29.88,10.0,SW,26.5,33.4,N/A,,Clear,230,2013-02-13 07:53:00
1:53 AM,39.9,24.1,53,29.88,10.0,SW,21.9,27.6,N/A,,Clear,230,2013-02-13 08:53:00
2:53 AM,42.1,23.0,47,29.86,10.0,WSW,27.6,33.4,N/A,,Clear,240,2013-02-13 09:53:00
3:53 AM,39.9,24.1,53,29.87,10.0,SW,21.9,-,N/A,,Clear,230,2013-02-13 10:53:00
4:53 AM,39.9,23.0,51,29.89,10.0,SW,11.5,-,N/A,,Overcast,230,2013-02-13 11:53:00
5:53 AM,41.0,24.1,51,29.89,10.0,SW,17.3,-,N/A,,Overcast,230,2013-02-13 12:53:00
6:53 AM,39.9,25.0,55,29.90,10.0,SW,18.4,-,N/A,,Overcast,230,2013-02-13 13:53:00
7:53 AM,39.0,25.0,57,29.94,10.0,WSW,8.1,-,N/A,,Overcast,250,2013-02-13 14:53:00
8:53 AM,41.0,27.0,57,29.92,10.0,WSW,13.8,-,0.00,,Scattered Clouds,250,2013-02-13 15:53:00
9:53 AM,43.0,27.0,53,29.94,10.0,West,17.3,-,N/A,,Clear,280,2013-02-13 16:53:00
10:53 AM,46.0,26.1,46,29.95,10.0,WNW,24.2,31.1,N/A,,Clear,290,2013-02-13 17:53:00
11:53 AM,48.0,16.0,28,29.95,9.0,West,32.2,43.7,N/A,,Clear,280,2013-02-13 18:53:00
12:53 PM,48.9,15.1,26,29.96,10.0,West,29.9,39.1,N/A,,Clear,280,2013-02-13 19:53:00
1:53 PM,48.9,14.0,25,29.95,10.0,West,26.5,39.1,N/A,,Clear,280,2013-02-13 20:53:00
2:53 PM,46.0,15.1,29,29.97,10.0,West,26.5,31.1,N/A,,Clear,280,2013-02-13 21:53:00
3:53 PM,45.0,15.1,30,29.99,10.0,WNW,31.1,38.0,N/A,,Partly Cloudy,290,2013-02-13 22:53:00
4:53 PM,44.1,17.1,34,30.02,10.0,West,17.3,-,N/A,,Scattered Clouds,280,2013-02-13 23:53:00
5:53 PM,39.0,18.0,43,30.05,10.0,West,15.0,-,N/A,,Scattered Clouds,270,2013-02-14 00:53:00
6:53 PM,37.0,21.9,54,30.11,10.0,NNE,8.1,-,N/A,,Mostly Cloudy,30,2013-02-14 01:53:00
7:53 PM,32.0,27.0,82,30.17,4.0,NE,13.8,-,0.00,Snow,Light Snow,40,2013-02-14 02:53:00
8:03 PM,32.0,26.6,80,30.08,4.0,NE,17.3,-,0.00,Snow,Light Snow,40,2013-02-14 03:03:00
8:16 PM,30.2,24.8,80,30.09,2.5,NE,16.1,-,0.00,Snow,Light Snow,50,2013-02-14 03:16:00
8:23 PM,30.2,26.6,86,30.10,1.2,NE,16.1,-,0.00,Snow,Light Snow,50,2013-02-14 03:23:00
8:34 PM,30.2,26.6,86,30.09,0.8,ENE,18.4,-,0.01,Snow,Light Snow,60,2013-02-14 03:34:00
8:53 PM,28.9,25.0,85,30.22,0.8,NE,18.4,-,0.02,Snow,Light Snow,40,2013-02-14 03:53:00
8:58 PM,28.4,24.8,86,30.12,1.0,NE,18.4,-,0.00,Snow,Light Snow,40,2013-02-14 03:58:00
9:11 PM,28.4,24.8,86,30.13,0.8,North,17.3,24.2,0.01,Snow,Light Snow,10,2013-02-14 04:11:00
9:26 PM,26.6,23.0,86,30.13,0.2,NE,13.8,-,0.02,Fog-Snow,Heavy Snow,40,2013-02-14 04:26:00
9:38 PM,26.6,23.0,86,30.14,1.0,NNE,15.0,-,0.04,Snow,Light Snow,30,2013-02-14 04:38:00
9:41 PM,26.6,23.0,86,30.14,2.0,NNE,15.0,-,0.05,Snow,Light Snow,30,2013-02-14 04:41:00
9:47 PM,26.6,21.2,80,30.14,6.0,NNE,17.3,23.0,0.05,Snow,Light Snow,30,2013-02-14 04:47:00
9:53 PM,27.0,21.0,78,30.25,9.0,NE,15.0,-,0.05,,Overcast,40,2013-02-14 04:53:00
10:11 PM,26.6,21.2,80,30.17,1.8,NNE,10.4,-,0.00,Snow,Light Snow,30,2013-02-14 05:11:00
10:22 PM,26.6,21.2,80,30.18,1.2,NNE,9.2,-,0.01,Snow,Light Snow,30,2013-02-14 05:22:00
10:28 PM,26.6,21.2,80,30.18,1.5,NNE,10.4,-,0.01,Snow,Light Snow,30,2013-02-14 05:28:00
10:36 PM,26.6,21.2,80,30.18,2.0,NNE,9.2,-,0.01,Snow,Light Snow,20,2013-02-14 05:36:00
10:46 PM,26.6,21.2,80,30.19,1.0,North,6.9,-,0.01,Snow,Light Snow,10,2013-02-14 05:46:00
10:53 PM,26.1,21.9,84,30.30,1.0,North,6.9,-,0.01,Snow,Light Snow,10,2013-02-14 05:53:00
11:05 PM,26.6,21.2,80,30.20,1.5,North,8.1,-,0.01,Snow,Light Snow,10,2013-02-14 06:05:00
11:30 PM,26.6,21.2,80,30.22,5.0,North,5.8,-,0.01,Snow,Light Snow,350,2013-02-14 06:30:00
11:44 PM,24.8,21.2,86,30.22,9.0,North,3.5,-,0.01,,Overcast,350,2013-02-14 06:44:00
11:53 PM,26.1,21.0,81,30.32,6.0,Calm,Calm,-,0.01,Snow,Light Snow,0,2013-02-14 06:53:00